GW3210 Weather Reports


time (UTC)temp
C
wind
direction
speed
KPH
gust
KPH
rain 1hr
cm
rain 24hr
cm
rain mn
cm
humidity
%
barometer
mb
20260503055115 16 338 3.2 6.4 0.00 0.03 0.03 61 1014.2
20260503054136 16 338 9.7 12.9 0.00 0.03 0.03 62 1014.2
20260503053115 16 0 3.2 6.4 0.00 0.03 0.03 62 1014.4
20260503052118 16 338 1.6 3.2 0.00 0.03 0.03 61 1014.6
20260503051158 16 0 3.2 4.8 0.00 0.03 0.03 61 1014.5
20260503050117 16 0.0 1.6 0.00 0.03 0.03 61 1014.7
20260503045117 16 0.0 0.0 0.00 0.03 0.03 61 1014.7
20260503044118 16 0.0 0.0 0.00 0.03 0.03 61 1014.9
20260503043117 16 135 1.6 3.2 0.00 0.03 0.03 61 1015.0
20260503042117 16 0.0 0.0 0.00 0.03 0.03 60 1014.8
20260503041218 16 135 1.6 3.2 0.00 0.03 0.03 60 1014.8
20260503040118 17 0.0 0.0 0.00 0.03 0.03 59 1014.8
20260503035138 17 135 1.6 3.2 0.00 0.03 0.03 59 1014.7
20260503034137 17 135 1.6 3.2 0.00 0.03 0.03 58 1014.9
20260503033117 17 158 4.8 8.0 0.00 0.03 0.03 57 1014.7
20260503032117 17 113 1.6 3.2 0.00 0.03 0.03 57 1014.7
20260503031117 18 158 3.2 4.8 0.00 0.03 0.03 55 1014.6
20260503030117 18 180 4.8 9.7 0.00 0.03 0.03 54 1014.6
20260503025117 19 135 4.8 6.4 0.00 0.03 0.03 53 1014.4
20260503024117 20 180 3.2 6.4 0.00 0.03 0.03 52 1014.3
20260503023138 20 158 6.4 12.9 0.00 0.03 0.03 51 1014.1
20260503022138 20 135 6.4 8.0 0.00 0.03 0.03 51 1014.2
20260503021117 20 135 4.8 6.4 0.00 0.03 0.03 50 1013.8
20260503020117 20 135 4.8 8.0 0.00 0.03 0.03 50 1013.6
20260503015117 21 135 6.4 8.0 0.00 0.03 0.03 49 1013.6
20260503014117 21 158 4.8 8.0 0.00 0.03 0.03 48 1013.4
20260503013117 22 180 4.8 8.0 0.00 0.03 0.03 48 1013.4
20260503012117 22 0.0 1.6 0.00 0.03 0.03 46 1013.3
20260503011116 22 315 1.6 3.2 0.00 0.03 0.03 46 1013.3
20260503010117 22 0 1.6 3.2 0.00 0.03 0.03 46 1013.3
20260503005117 22 315 3.2 4.8 0.00 0.03 0.03 45 1013.4
20260503004116 22 293 4.8 6.4 0.00 0.03 0.03 45 1013.4
20260503003117 22 293 4.8 6.4 0.00 0.03 0.03 45 1013.5
20260503002117 22 270 3.2 3.2 0.00 0.03 0.03 44 1013.5
20260503001117 23 293 4.8 8.0 0.00 0.03 0.03 44 1013.4
20260503000137 22 270 4.8 9.7 0.00 0.03 0.03 44 1013.5
20260502235117 23 293 8.0 11.3 0.00 0.03 0.03 44 1013.5
20260502234116 22 293 4.8 6.4 0.00 0.03 0.03 44 1013.6
20260502233117 22 225 4.8 8.0 0.00 0.03 0.03 44 1013.7
20260502232137 22 293 6.4 11.3 0.00 0.03 0.03 44 1013.7
20260502231116 22 293 8.0 12.9 0.00 0.03 0.03 45 1013.8
20260502230137 22 248 3.2 4.8 0.00 0.03 0.03 47 1014.1
20260502225116 21 270 6.4 12.9 0.00 0.03 0.03 47 1014.3
20260502224117 21 315 4.8 6.4 0.00 0.03 0.03 47 1014.5
20260502223117 21 338 3.2 6.4 0.00 0.03 0.03 47 1014.5
20260502222116 21 248 4.8 6.4 0.00 0.03 0.03 49 1014.6
20260502221117 21 270 9.7 12.9 0.00 0.03 0.03 47 1014.8
20260502220116 21 293 6.4 9.7 0.00 0.03 0.03 48 1014.9
20260502215117 21 293 4.8 11.3 0.00 0.03 0.03 48 1015.0
20260502214116 20 338 6.4 9.7 0.00 0.03 0.03 50 1015.2
20260502213117 20 248 3.2 3.2 0.00 0.03 0.03 48 1015.3
20260502212117 20 225 3.2 6.4 0.00 0.03 0.03 50 1015.4
20260502211116 20 293 11.3 12.9 0.00 0.03 0.03 50 1015.5
20260502210116 19 225 3.2 4.8 0.00 0.03 0.03 51 1015.8
20260502205117 18 0 4.8 8.0 0.00 0.03 0.03 54 1015.8
20260502204116 18 270 6.4 11.3 0.00 0.03 0.03 55 1016.0
20260502203407 17 315 4.8 8.0 0.00 0.03 0.03 56 1016.0
20260502203216 17 293 6.4 9.7 0.00 0.03 0.03 56 1016.0
20260502202216 18 45 1.6 3.2 0.00 0.03 0.03 53 1016.2
20260502201216 18 270 8.0 12.9 0.00 0.03 0.03 53 1016.2
20260502200216 17 338 3.2 4.8 0.00 0.03 0.03 57 1016.2
20260502195216 17 315 1.6 3.2 0.00 0.03 0.03 56 1016.3
20260502194257 16 135 3.2 3.2 0.00 0.03 0.03 55 1016.5
20260502193216 16 225 3.2 4.8 0.00 0.03 0.03 58 1016.6
20260502192216 16 338 6.4 9.7 0.00 0.03 0.03 59 1016.7
20260502191216 15 270 9.7 12.9 0.00 0.03 0.03 61 1016.8
20260502190216 15 293 9.7 14.5 0.00 0.03 0.03 61 1016.9
20260502185216 13 270 4.8 6.4 0.00 0.03 0.03 64 1016.6
20260502184216 13 293 3.2 6.4 0.00 0.03 0.03 65 1016.7
20260502183217 12 270 3.2 6.4 0.00 0.03 0.03 65 1016.8
20260502182216 12 135 1.6 3.2 0.00 0.03 0.03 64 1017.1
20260502181216 12 338 6.4 8.0 0.00 0.03 0.03 65 1017.3
20260502180216 12 0 1.6 3.2 0.00 0.03 0.03 65 1017.4
20260502170216 11 293 3.2 4.8 0.00 0.03 0.03 69 1017.3
20260502164256 10 293 3.2 4.8 0.00 0.03 0.03 70 1017.5
20260502163216 10 315 3.2 4.8 0.00 0.03 0.03 71 1017.5
20260502162216 10 23 3.2 6.4 0.00 0.03 0.03 73 1017.6
20260502161216 10 315 3.2 4.8 0.00 0.03 0.03 74 1017.6
20260502160216 10 0 3.2 4.8 0.00 0.03 0.03 74 1017.7
20260502152216 10 315 3.2 4.8 0.00 0.03 0.03 78 1017.9
20260502151216 10 315 3.2 4.8 0.00 0.03 0.03 79 1017.9
20260502150216 10 293 3.2 3.2 0.00 0.03 0.03 79 1017.9
20260502130215 9 315 3.2 4.8 0.00 0.03 0.03 82 1017.7
20260502123217 9 315 3.2 4.8 0.00 0.03 0.03 82 1017.6
20260502122217 9 293 4.8 6.4 0.00 0.03 0.03 82 1017.6
20260502121258 9 315 4.8 8.0 0.00 0.03 0.03 82 1017.6
20260502120217 9 315 3.2 3.2 0.00 0.03 0.03 81 1017.5
20260502115237 9 293 3.2 4.8 0.00 0.03 0.03 81 1017.6
20260502114217 9 293 4.8 6.4 0.00 0.03 0.03 81 1017.5
20260502113217 9 315 4.8 8.0 0.00 0.03 0.03 81 1017.4
20260502112217 9 315 4.8 11.3 0.00 0.03 0.03 81 1017.5
20260502111217 9 315 6.4 9.7 0.00 0.03 0.03 80 1017.4
20260502110238 9 270 4.8 6.4 0.00 0.03 0.03 80 1017.6
20260502105217 9 270 3.2 4.8 0.00 0.03 0.03 78 1017.5
20260502104217 9 293 4.8 6.4 0.00 0.03 0.03 77 1017.5
20260502103237 9 338 3.2 4.8 0.00 0.03 0.03 76 1017.4
20260502102238 9 315 4.8 8.0 0.00 0.03 0.03 76 1017.3
20260502101217 9 0 4.8 6.4 0.00 0.03 0.03 76 1017.6
20260502100217 9 293 3.2 4.8 0.03 0.03 0.03 76 1017.9
20260502091217 10 203 3.2 4.8 0.03 0.03 0.03 69 1018.9
20260502090217 10 158 12.9 19.3 0.00 0.00 0.00 68 1019.2
20260502071216 10 315 9.7 14.5 0.00 0.00 0.00 65 1018.3
20260502070217 10 293 8.0 11.3 0.00 0.00 0.00 65 1018.2
20260502065215 10 270 8.0 14.5 0.00 0.00 0.00 65 1018.2
20260502064218 10 315 6.4 8.0 0.00 0.00 0.00 65 1018.3
20260502063218 10 293 8.0 12.9 0.00 0.00 0.00 65 1018.3
20260502062238 10 293 8.0 12.9 0.00 0.00 0.00 65 1018.3
20260502061217 11 293 9.7 19.3 0.00 0.00 0.00 64 1018.1
20260502060218 11 315 9.7 14.5 0.00 0.00 0.00 63 1018.0